[[{"header":{"parameterUnit":"m.s-1","parameterCategory":1,"la1":30.2991,"la2":30.254,"lo1":-89.0895,"lo2":-89.0444,"dx":0.0017,"dy":0.0017,"nx":28,"ny":28,"refTime":"2023-01-17T09:00:00:Z","depth":0,"parameterNumber":2,"parameterNumberName":"U-component_of_WINDS"},"data":[0,0,0,0,0,0,0,0,0,0,0,0,0,0,0,0,0,0,0,0,0,0,0,0,0,0,0,0,0,0,0,0,0,0,0,0,0,0,0,0,0,0,0,0,0,0,0,0,0,0,0,0,0,0,0,0,0,0,-1.5762,-1.5762,0,-1.5714,-1.5713,-1.5713,-1.5677,-1.5677,-1.5676,-1.5676,-1.5624,-1.5623,-1.5622,0,0,0,0,0,0,0,0,0,0,0,0,0,-1.5822,-1.5821,-1.5762,-1.5762,-1.5761,-1.5714,-1.5713,-1.5713,-1.5677,-1.5677,-1.5676,-1.5676,-1.5624,-1.5623,-1.5622,0,0,0,0,0,0,0,0,0,0,0,0,0,-1.5787,-1.582,-1.5763,-1.5738,-1.5735,-1.5714,-1.5713,-1.5712,-1.5677,-1.5676,-1.5676,-1.5676,-1.5625,-1.5623,-1.5622,-1.5621,0,0,-1.5617,-1.5616,0,0,0,0,0,0,0,0,-1.5789,-1.5785,-1.5742,-1.5739,-1.5736,-1.5701,-1.5715,-1.5682,-1.5677,-1.5699,-1.5676,-1.5675,-1.565,-1.5646,-1.5638,-1.5618,-1.5616,-1.5616,-1.5615,-1.5615,-1.5614,0,0,0,0,0,0,0,-1.5791,-1.5786,-1.5743,-1.5741,-1.5738,-1.5728,-1.5723,-1.5709,-1.5678,-1.5697,-1.5694,-1.5689,-1.5648,-1.564,-1.5637,-1.5615,-1.5617,-1.5615,-1.5614,-1.5613,-1.5591,-1.5591,0,0,0,0,0,0,-1.5798,-1.5789,-1.5745,-1.5742,-1.5762,-1.5728,-1.5721,-1.5713,-1.5678,-1.5672,-1.569,-1.5688,-1.5643,-1.5638,-1.5635,-1.563,-1.5615,-1.5613,-1.5612,-1.5591,-1.5591,-1.5592,0,0,0,0,0,0,-1.5799,-1.5794,-1.5747,-1.5764,-1.5758,-1.5727,-1.5718,-1.5712,-1.5703,-1.5672,-1.5666,-1.5687,-1.5642,-1.5637,-1.5624,-1.5628,-1.5612,-1.5611,-1.559,-1.5591,-1.5591,-1.5622,0,0,0,0,0,0,-1.5801,-1.5795,-1.5795,-1.5765,-1.5757,-1.5738,-1.5718,-1.5711,-1.5701,-1.5698,-1.5668,-1.5662,-1.5641,-1.5627,-1.5623,-1.5625,-1.561,-1.559,-1.5591,-1.5591,-1.562,-1.5623,-1.5626,0,0,0,0,0,-1.5803,-1.5805,-1.5795,-1.579,-1.5756,-1.5738,-1.5734,-1.571,-1.5702,-1.5701,-1.568,-1.5663,-1.5629,-1.5626,-1.5621,-1.5623,-1.5589,-1.559,-1.5591,-1.5619,-1.5623,-1.5626,0,0,0,0,0,0,-1.5836,-1.5801,-1.5789,-1.5782,-1.5763,-1.5732,-1.5731,-1.5715,-1.5698,-1.5696,-1.5667,-1.5661,-1.5651,-1.5636,-1.5634,-1.562,-1.5607,-1.5607,-1.563,-1.5633,-1.5636,-1.5639,-1.5608,0,0,0,0,0,-1.5843,-1.5832,-1.5801,-1.5797,-1.5789,-1.5762,-1.5753,-1.5736,-1.5716,-1.5708,-1.5687,-1.5667,-1.5651,-1.5641,-1.5625,-1.5619,-1.5611,-1.5617,-1.562,-1.5623,-1.5622,-1.5616,-1.5618,-1.5595,-1.5595,-1.5594,0,0,-1.5855,-1.5835,-1.583,-1.5803,-1.5787,-1.5776,-1.5755,-1.5744,-1.5735,-1.5706,-1.5692,-1.5676,-1.5652,-1.5642,-1.5637,-1.5629,-1.5627,-1.5624,-1.5626,-1.5624,-1.5617,-1.562,-1.5622,-1.5595,-1.5595,-1.5595,0,0,-1.5872,-1.5857,-1.5851,-1.5835,-1.5811,-1.5793,-1.5792,-1.5763,-1.5752,-1.5738,-1.5716,-1.5704,-1.5678,-1.5662,-1.565,-1.5661,-1.5644,-1.5656,-1.567,-1.5665,-1.5667,-1.5668,-1.5671,-1.5672,-1.5657,-1.5657,-1.5657,0,-1.5891,-1.5873,-1.585,-1.584,-1.5828,-1.5803,-1.5796,-1.5782,-1.5754,-1.5746,-1.5738,-1.5705,-1.5687,-1.5672,-1.5675,-1.5667,-1.5663,-1.5659,-1.5668,-1.567,-1.5671,-1.5673,-1.5674,-1.5658,-1.5658,-1.5658,-1.5658,0,-1.5897,-1.5885,-1.5883,-1.5857,-1.5846,-1.5838,-1.5812,-1.5803,-1.5788,-1.577,-1.5756,-1.5733,-1.5712,-1.5708,-1.5692,-1.569,-1.5686,-1.5674,-1.566,-1.5675,-1.5676,-1.5677,-1.566,-1.566,-1.5659,-1.5659,0,0,-1.5932,-1.5893,-1.5893,-1.588,-1.5852,-1.5842,-1.5832,-1.5812,-1.5804,-1.5786,-1.5776,-1.5755,-1.5743,-1.573,-1.5713,-1.5708,-1.5716,-1.5696,-1.5695,-1.5699,-1.5711,-1.5719,-1.572,-1.5706,-1.5706,-1.5706,-1.5712,0,-1.5944,-1.5925,-1.5904,-1.5892,-1.588,-1.5856,-1.5847,-1.5828,-1.5812,-1.5798,-1.578,-1.5765,-1.5751,-1.5743,-1.5737,-1.5717,-1.5718,-1.5716,-1.5695,-1.5694,-1.57,-1.5721,-1.573,-1.5737,-1.5713,-1.5713,-1.5713,0,-1.5954,-1.5938,-1.5925,-1.5897,-1.5891,-1.5884,-1.5863,-1.5852,-1.5829,-1.5817,-1.5803,-1.5784,-1.5772,-1.5761,-1.5742,-1.5741,-1.5731,-1.572,-1.572,-1.5716,-1.5704,-1.5716,-1.5739,-1.574,-1.5714,-1.5714,-1.5714,0,-1.5979,-1.5954,-1.5943,-1.5933,-1.5901,-1.5896,-1.5882,-1.586,-1.5849,-1.583,-1.5823,-1.5803,-1.5792,-1.5777,-1.5753,-1.5748,-1.5737,-1.5724,-1.5725,-1.5726,-1.5723,-1.5723,-1.5743,-1.5719,-1.5719,-1.5719,-1.5719,0,-1.5993,-1.5986,-1.5953,-1.5946,-1.5938,-1.5913,-1.5904,-1.5888,-1.5869,-1.5857,-1.5835,-1.5825,-1.5795,-1.5781,-1.5763,-1.575,-1.5745,-1.5734,-1.5729,-1.5735,-1.5737,-1.5727,-1.5726,-1.572,-1.572,-1.572,-1.5719,0,-1.6019,-1.5997,-1.5983,-1.5954,-1.5947,-1.5941,-1.5916,-1.5907,-1.589,-1.5876,-1.5871,-1.5843,-1.5825,-1.5801,-1.5776,-1.5763,-1.5752,-1.5745,-1.5759,-1.5756,-1.5758,-1.5758,-1.5772,-1.5772,-1.575,-1.575,-1.575,0,-1.6029,-1.6023,-1.5993,-1.5985,-1.5972,-1.5958,-1.5947,-1.5922,-1.5911,-1.5885,-1.588,-1.5861,-1.5844,-1.5817,-1.5793,-1.5774,-1.5765,-1.5771,-1.5762,-1.5768,-1.5763,-1.5763,-1.5762,-1.5773,-1.5773,-1.5774,-1.5774,0,-1.6048,-1.6037,-1.6022,-1.6003,-1.5991,-1.5974,-1.5957,-1.5951,-1.5922,-1.5911,-1.5893,-1.588,-1.5854,-1.5835,-1.5812,-1.5797,-1.578,-1.5777,-1.5776,-1.5782,-1.579,-1.5784,-1.5764,-1.5777,-1.5776,-1.5776,-1.5776,-1.5776,-1.6065,-1.6058,-1.6036,-1.602,-1.6004,-1.5989,-1.5979,-1.5961,-1.5946,-1.5923,-1.591,-1.5892,-1.5869,-1.5837,-1.5823,-1.5808,-1.5801,-1.58,-1.5799,-1.5799,-1.5801,-1.5794,-1.5804,-1.5803,-1.5803,-1.5803,-1.5803,0,-1.6081,-1.6066,-1.6052,-1.6028,-1.6015,-1.6002,-1.5982,-1.5972,-1.5957,-1.5938,-1.5922,-1.5901,-1.5882,-1.5857,-1.5837,-1.5829,-1.5821,-1.5825,-1.5824,-1.5821,-1.5808,-1.5811,-1.5832,-1.5832,-1.5832,-1.5832,-1.5832,-1.5832,-1.6088,-1.6076,-1.6063,-1.6042,-1.6026,-1.601,-1.5999,-1.5984,-1.5969,-1.5946,-1.5931,-1.5915,-1.5894,-1.5871,-1.5853,-1.5846,-1.5839,-1.5845,-1.5835,-1.5824,-1.5821,-1.5819,-1.5821,-1.5844,-1.5844,-1.5848,-1.5848,-1.5848]},{"header":{"parameterUnit":"m.s-1","parameterCategory":1,"la1":30.2991,"la2":30.254,"lo1":-89.0895,"lo2":-89.0444,"dx":0.0017,"dy":0.0017,"nx":28,"ny":28,"refTime":"2023-01-17T09:00:00:Z","depth":0,"parameterNumber":3,"parameterNumberName":"V-component_of_WINDS"},"data":[0,0,0,0,0,0,0,0,0,0,0,0,0,0,0,0,0,0,0,0,0,0,0,0,0,0,0,0,0,0,0,0,0,0,0,0,0,0,0,0,0,0,0,0,0,0,0,0,0,0,0,0,0,0,0,0,0,0,3.5662,3.5663,0,3.5723,3.5723,3.5724,3.5755,3.5755,3.5755,3.5755,3.5815,3.5817,3.5818,0,0,0,0,0,0,0,0,0,0,0,0,0,3.5575,3.5577,3.5662,3.5663,3.5664,3.5722,3.5723,3.5724,3.5755,3.5755,3.5755,3.5755,3.5815,3.5817,3.5819,0,0,0,0,0,0,0,0,0,0,0,0,0,3.5622,3.5577,3.5662,3.5686,3.5689,3.5722,3.5723,3.5724,3.5755,3.5755,3.5755,3.5755,3.5814,3.5817,3.5819,3.5832,0,0,3.5826,3.5827,0,0,0,0,0,0,0,0,3.5619,3.5625,3.5682,3.5685,3.5688,3.5731,3.5715,3.576,3.5755,3.573,3.5755,3.5755,3.5787,3.5792,3.5803,3.5835,3.5838,3.5826,3.5828,3.5829,3.5829,0,0,0,0,0,0,0,3.5616,3.5623,3.5686,3.5683,3.5686,3.5695,3.5701,3.5724,3.5757,3.5732,3.5734,3.5741,3.5789,3.5801,3.5805,3.5838,3.5826,3.5828,3.583,3.5831,3.589,3.589,0,0,0,0,0,0,3.5609,3.562,3.5684,3.5688,3.5653,3.5696,3.5704,3.5717,3.5757,3.5763,3.5741,3.5742,3.5797,3.5802,3.5807,3.5829,3.5829,3.5831,3.5832,3.5889,3.589,3.589,0,0,0,0,0,0,3.5607,3.5614,3.5682,3.5655,3.5664,3.5698,3.5713,3.5718,3.573,3.5764,3.577,3.5747,3.5797,3.5804,3.5827,3.5831,3.5832,3.5834,3.5889,3.589,3.589,3.587,0,0,0,0,0,0,3.5604,3.5613,3.5618,3.5654,3.5665,3.57,3.5713,3.572,3.5734,3.5737,3.5771,3.5777,3.5797,3.5823,3.5829,3.5834,3.5836,3.5889,3.5889,3.589,3.587,3.5869,3.5868,0,0,0,0,0,3.5601,3.5609,3.5618,3.5626,3.5672,3.57,3.5706,3.573,3.5734,3.574,3.5763,3.5776,3.5829,3.5825,3.5832,3.5838,3.5889,3.5889,3.589,3.5871,3.5869,3.5868,0,0,0,0,0,0,3.557,3.5614,3.5625,3.5644,3.5669,3.5705,3.5713,3.5727,3.575,3.5751,3.578,3.5787,3.5809,3.5825,3.582,3.5856,3.5861,3.5862,3.5844,3.5843,3.5842,3.5838,3.5838,0,0,0,0,0,3.5566,3.5585,3.5622,3.5636,3.5648,3.5678,3.5691,3.5708,3.5734,3.5744,3.5768,3.5793,3.5816,3.583,3.5853,3.5873,3.5883,3.588,3.588,3.5879,3.588,3.5896,3.5897,3.5891,3.5891,3.5891,0,0,3.5557,3.5583,3.5593,3.5631,3.5651,3.5672,3.5687,3.5706,3.5723,3.5747,3.5772,3.5791,3.582,3.5843,3.5854,3.5858,3.5884,3.5879,3.5878,3.588,3.5897,3.5897,3.5898,3.5891,3.5891,3.5891,0,0,3.5551,3.5572,3.5588,3.5609,3.5641,3.5662,3.5666,3.5702,3.5716,3.5741,3.5761,3.5781,3.5818,3.584,3.5856,3.5864,3.5878,3.587,3.5866,3.5881,3.5881,3.5882,3.5888,3.5889,3.5871,3.5871,3.5871,0,3.5536,3.5567,3.5593,3.5614,3.5631,3.5656,3.5674,3.5693,3.573,3.5742,3.5746,3.5797,3.5818,3.5849,3.5851,3.5862,3.5869,3.5866,3.5879,3.588,3.5881,3.5887,3.5888,3.587,3.587,3.587,3.587,0,3.5548,3.557,3.5579,3.5617,3.5635,3.5654,3.5684,3.57,3.5716,3.5737,3.5765,3.5792,3.5822,3.583,3.5845,3.5864,3.5866,3.5874,3.588,3.588,3.5886,3.5888,3.5869,3.5869,3.5869,3.587,0,0,3.5523,3.5578,3.5581,3.5601,3.564,3.5658,3.5679,3.571,3.5724,3.575,3.577,3.5803,3.5813,3.5831,3.5848,3.5861,3.587,3.5869,3.587,3.587,3.5897,3.5892,3.5894,3.588,3.588,3.588,3.5895,0,3.5525,3.5565,3.5591,3.562,3.5643,3.5669,3.5688,3.5715,3.5736,3.5759,3.5782,3.5807,3.5815,3.5827,3.5841,3.5866,3.5876,3.5865,3.59,3.5901,3.5894,3.5896,3.589,3.5903,3.5897,3.5898,3.5898,0,3.5532,3.556,3.5592,3.5633,3.5643,3.5659,3.5693,3.5713,3.5746,3.576,3.5783,3.5802,3.5827,3.5831,3.5868,3.586,3.5876,3.5891,3.5892,3.5897,3.59,3.5904,3.5907,3.591,3.5901,3.5901,3.5901,0,3.5514,3.5559,3.5586,3.5601,3.5648,3.566,3.568,3.5712,3.5731,3.5759,3.5772,3.5803,3.582,3.5844,3.5872,3.5872,3.5908,3.5912,3.5922,3.5922,3.5929,3.5928,3.5937,3.5936,3.5936,3.5936,3.5936,0,3.5515,3.5534,3.5579,3.5595,3.5619,3.565,3.5672,3.5695,3.5724,3.5746,3.577,3.579,3.5825,3.585,3.5872,3.5901,3.5908,3.5922,3.5928,3.5921,3.5919,3.5932,3.5933,3.5936,3.5936,3.5936,3.5936,0,3.5498,3.5529,3.556,3.5604,3.5615,3.5631,3.5669,3.5686,3.571,3.5738,3.5747,3.5784,3.5815,3.5845,3.5886,3.5901,3.5931,3.5938,3.5921,3.5925,3.5934,3.5933,3.5952,3.5958,3.5951,3.5951,3.5951,0,3.5497,3.5514,3.556,3.5577,3.5598,3.5624,3.5644,3.5676,3.5696,3.5736,3.575,3.5784,3.5812,3.5862,3.5892,3.5925,3.5934,3.5939,3.5939,3.5933,3.5938,3.5937,3.594,3.5938,3.5938,3.5938,3.5938,0,3.5493,3.5509,3.5537,3.5572,3.5595,3.5624,3.5653,3.5666,3.5703,3.5725,3.5758,3.5781,3.5825,3.5859,3.5896,3.5918,3.5935,3.5938,3.5942,3.5936,3.5927,3.5935,3.5922,3.5937,3.5937,3.5937,3.5937,3.5937,3.5487,3.5504,3.554,3.5572,3.5598,3.5626,3.5646,3.5674,3.5702,3.5741,3.5758,3.5793,3.5828,3.5881,3.5903,3.5931,3.5935,3.594,3.5942,3.5944,3.5944,3.5921,3.5937,3.5937,3.5937,3.5938,3.5938,0,3.5486,3.5512,3.5541,3.5583,3.5608,3.5623,3.5658,3.5678,3.5709,3.574,3.5769,3.581,3.5844,3.5879,3.5915,3.5932,3.5941,3.594,3.594,3.5946,3.5936,3.593,3.5933,3.5933,3.5933,3.5933,3.5933,3.5933,3.5489,3.5521,3.5541,3.5586,3.5612,3.5647,3.5665,3.5692,3.5718,3.5763,3.5792,3.5815,3.5849,3.5889,3.5922,3.5931,3.5945,3.5943,3.5955,3.5946,3.5946,3.5946,3.594,3.5945,3.5945,3.5962,3.5962,3.5962]}]]